| time (UTC) | temp C | wind direction | speed KPH | gust KPH | rain 1hr cm | rain 24hr cm | rain mn cm | humidity % | barometer mb |
| 20260502220030 | 10 | 0 | 0.0 | 4.8 | 0.00 | 0.18 | 0.18 | 89 | 1011.3 |
| 20260502214539 | 10 | 0 | 0.0 | 3.2 | 0.00 | 0.18 | 0.18 | 89 | 1011.2 |
| 20260502213030 | 11 | 0 | 0.0 | 3.2 | 0.00 | 0.18 | 0.18 | 89 | 1011.2 |
| 20260502211534 | 11 | 321 | 1.6 | 4.8 | 0.00 | 0.18 | 0.18 | 89 | 1011.2 |
| 20260502210032 | 10 | 0 | 0.0 | 3.2 | 0.00 | 0.18 | 0.18 | 89 | 1011.2 |
| 20260502204530 | 10 | 0 | 1.6 | 4.8 | 0.00 | 0.18 | 0.18 | 88 | 1011.2 |
| 20260502203028 | 10 | 0 | 0.0 | 3.2 | 0.00 | 0.18 | 0.18 | 88 | 1011.4 |
| 20260502201530 | 11 | 0 | 0.0 | 4.8 | 0.00 | 0.18 | 0.18 | 88 | 1011.4 |
| 20260502200034 | 11 | 0 | 0.0 | 0.0 | 0.03 | 0.18 | 0.18 | 88 | 1011.4 |
| 20260502194529 | 11 | 0 | 0.0 | 0.0 | 0.03 | 0.18 | 0.18 | 88 | 1011.4 |
| 20260502193028 | 11 | 0 | 0.0 | 3.2 | 0.03 | 0.15 | 0.15 | 88 | 1011.4 |
| 20260502191530 | 11 | 0 | 0.0 | 1.6 | 0.03 | 0.15 | 0.15 | 87 | 1011.4 |
| 20260502190033 | 11 | 0 | 0.0 | 0.0 | 0.03 | 0.13 | 0.13 | 87 | 1011.5 |
| 20260502184533 | 11 | 0 | 0.0 | 3.2 | 0.03 | 0.13 | 0.13 | 87 | 1011.6 |
| 20260502183029 | 11 | 0 | 0.0 | 3.2 | 0.03 | 0.10 | 0.10 | 87 | 1011.7 |
| 20260502181534 | 11 | 0 | 0.0 | 4.8 | 0.05 | 0.10 | 0.10 | 87 | 1011.6 |
| 20260502163032 | 12 | 0 | 1.6 | 4.8 | 0.00 | 0.00 | 0.00 | 83 | 1012.1 |
| 20260502161527 | 12 | 0 | 0.0 | 3.2 | 0.00 | 0.00 | 0.00 | 83 | 1012.2 |
| 20260502151529 | 12 | 0 | 0.0 | 4.8 | 0.00 | 0.00 | 0.00 | 82 | 1012.8 |
| 20260502123028 | 15 | 83 | 4.8 | 14.5 | 0.00 | 0.00 | 0.00 | 69 | 1014.3 |
| 20260502121538 | 16 | 95 | 3.2 | 17.7 | 0.00 | 0.00 | 0.00 | 68 | 1014.2 |
| 20260502114528 | 15 | 101 | 6.4 | 19.3 | 0.00 | 0.00 | 0.00 | 70 | 1014.6 |
| 20260502113030 | 15 | 78 | 6.4 | 16.1 | 0.00 | 0.00 | 0.00 | 68 | 1014.8 |
| 20260502111532 | 16 | 82 | 6.4 | 16.1 | 0.00 | 0.00 | 0.00 | 66 | 1015.0 |
| 20260502110035 | 15 | 72 | 6.4 | 16.1 | 0.00 | 0.00 | 0.00 | 67 | 1015.2 |
| 20260502104531 | 15 | 131 | 6.4 | 17.7 | 0.00 | 0.00 | 0.00 | 68 | 1015.4 |
| 20260502103029 | 15 | 115 | 6.4 | 20.9 | 0.00 | 0.00 | 0.00 | 71 | 1015.3 |
| 20260502101530 | 15 | 92 | 8.0 | 17.7 | 0.00 | 0.00 | 0.00 | 69 | 1015.3 |
| 20260502091531 | 14 | 65 | 4.8 | 14.5 | 0.00 | 0.00 | 0.00 | 76 | 1015.4 |
| 20260502071534 | 12 | 128 | 4.8 | 12.9 | 0.00 | 0.00 | 0.00 | 86 | 1016.2 |
| 20260502070034 | 11 | 126 | 3.2 | 14.5 | 0.00 | 0.00 | 0.00 | 87 | 1016.3 |
| 20260502064531 | 11 | 114 | 4.8 | 12.9 | 0.00 | 0.00 | 0.00 | 87 | 1016.3 |
| 20260502063031 | 11 | 123 | 3.2 | 11.3 | 0.00 | 0.00 | 0.00 | 87 | 1016.3 |
| 20260502061530 | 11 | 62 | 3.2 | 11.3 | 0.00 | 0.00 | 0.00 | 87 | 1016.4 |
| 20260502060033 | 11 | 136 | 4.8 | 11.3 | 0.00 | 0.00 | 0.00 | 87 | 1016.4 |
| 20260502054541 | 11 | 87 | 3.2 | 11.3 | 0.00 | 0.00 | 0.00 | 87 | 1016.5 |
| 20260502053035 | 10 | 100 | 3.2 | 11.3 | 0.00 | 0.00 | 0.00 | 87 | 1016.4 |
| 20260502051530 | 10 | 80 | 3.2 | 12.9 | 0.00 | 0.00 | 0.00 | 88 | 1016.4 |
| 20260502050030 | 10 | 79 | 4.8 | 11.3 | 0.00 | 0.00 | 0.00 | 88 | 1016.4 |
| 20260502044532 | 10 | 80 | 1.6 | 6.4 | 0.00 | 0.00 | 0.00 | 88 | 1016.5 |
| 20260502043036 | 10 | 149 | 1.6 | 8.0 | 0.00 | 0.00 | 0.00 | 88 | 1016.4 |
| 20260502041534 | 10 | 109 | 1.6 | 11.3 | 0.00 | 0.00 | 0.00 | 88 | 1016.5 |
| 20260502040028 | 10 | 128 | 1.6 | 9.7 | 0.00 | 0.00 | 0.00 | 87 | 1016.6 |
| 20260502034528 | 10 | 108 | 3.2 | 11.3 | 0.00 | 0.00 | 0.00 | 87 | 1016.8 |
| 20260502033040 | 10 | 142 | 1.6 | 9.7 | 0.00 | 0.00 | 0.00 | 88 | 1016.9 |
| 20260502031533 | 10 | 118 | 1.6 | 6.4 | 0.00 | 0.00 | 0.00 | 87 | 1017.1 |
| 20260502030032 | 10 | 141 | 3.2 | 9.7 | 0.00 | 0.00 | 0.00 | 87 | 1017.1 |
| 20260502024532 | 10 | 0 | 1.6 | 12.9 | 0.00 | 0.00 | 0.00 | 87 | 1017.2 |
| 20260502023030 | 10 | 0 | 1.6 | 8.0 | 0.00 | 0.00 | 0.00 | 87 | 1017.2 |
| 20260502021528 | 10 | 119 | 1.6 | 6.4 | 0.00 | 0.00 | 0.00 | 87 | 1017.5 |
| 20260502020030 | 11 | 0 | 0.0 | 9.7 | 0.00 | 0.00 | 0.00 | 86 | 1017.6 |
| 20260502014529 | 11 | 114 | 3.2 | 12.9 | 0.00 | 0.00 | 0.00 | 86 | 1017.8 |
| 20260502013027 | 11 | 114 | 1.6 | 6.4 | 0.00 | 0.00 | 0.00 | 86 | 1018.1 |
| 20260502011530 | 11 | 155 | 1.6 | 6.4 | 0.00 | 0.00 | 0.00 | 86 | 1018.1 |
| 20260502010030 | 11 | 163 | 4.8 | 11.3 | 0.00 | 0.00 | 0.00 | 87 | 1018.4 |
| 20260502004549 | 11 | 0 | 1.6 | 9.7 | 0.00 | 0.00 | 0.00 | 87 | 1018.7 |
| 20260502003028 | 11 | 182 | 1.6 | 4.8 | 0.00 | 0.00 | 0.00 | 87 | 1018.8 |
| 20260502001528 | 11 | 182 | 1.6 | 6.4 | 0.00 | 0.00 | 0.00 | 87 | 1018.8 |
| 20260502000046 | 11 | 0 | 0.0 | 6.4 | 0.00 | 0.00 | 0.00 | 86 | 1018.9 |
| 20260501234532 | 11 | 186 | 0.0 | 4.8 | 0.00 | 0.00 | 0.00 | 86 | 1019.0 |
| 20260501233028 | 11 | 0 | 0.0 | 4.8 | 0.00 | 0.00 | 0.00 | 86 | 1019.0 |
| 20260501231539 | 11 | 143 | 0.0 | 4.8 | 0.00 | 0.00 | 0.00 | 86 | 1019.1 |
| 20260501230031 | 11 | 175 | 0.0 | 9.7 | 0.00 | 0.00 | 0.00 | 85 | 1019.2 |
| 20260501224527 | 11 | 105 | 1.6 | 8.0 | 0.00 | 0.00 | 0.00 | 85 | 1019.3 |
| 20260501223029 | 11 | 164 | 0.0 | 6.4 | 0.00 | 0.00 | 0.00 | 85 | 1019.3 |
| 20260501221528 | 11 | 140 | 0.0 | 9.7 | 0.00 | 0.00 | 0.00 | 85 | 1019.2 |